Location: Benque
(43.2594°N, 0.9178°E)
Time: 03:52:01
(UTC+00:00)

Cosmos 1339 Rocket - Pass Details

Date: 24 January 2020
Orbit: 941 x 1006 km, 82.9° (Epoch: 18 February)

Event Time Altitude Azimuth Distance (km) Brightness Sun altitude
Rises 17:53:48 0° 355° (N) 3,617 7.4 -10.5°
Reaches altitude 10° 17:56:21 10° 360° (N) 2,671 6.6 -10.9°
Maximum altitude 18:02:20 57° 79° (ENE) 1,106 4.5 -12.0°
Drops below altitude 10° 18:08:22 10° 157° (SSE) 2,682 6.7 -13.0°
Sets 18:10:55 0° 162° (SSE) 3,633 7.5 -13.5°
